This is the latest recevied weather packets stored in our database for station/object N4CRH-13. If no packets are shown the sender has not sent any weather packets the latest 10 day(s).
| Time | Temp. | Humidity | Pressure | Rain* | Wind** | Luminosity | Snow |
|---|---|---|---|---|---|---|---|
| 1777916056 | 17.22° C | 25% | 1288.7 hPa | 0 mm | - | 377 W/m² | - |
| 1777915753 | 17.22° C | 27% | 1289 hPa | 0 mm | - | 319 W/m² | - |
| 1777915449 | 17.22° C | 28% | 1288.9 hPa | 0 mm | - | 314 W/m² | - |
| 1777915145 | 17.22° C | 27% | 1289.1 hPa | 0 mm | - | 345 W/m² | - |
| 1777914540 | 17.22° C | 26% | 1288.9 hPa | 0 mm | - | 320 W/m² | - |
| 1777914236 | 16.67° C | 28% | 1289.1 hPa | 0 mm | - | 321 W/m² | - |
| 1777913933 | 16.67° C | 27% | 1289.2 hPa | 0 mm | - | 294 W/m² | - |
| 1777913629 | 16.11° C | 31% | 1289.2 hPa | 0 mm | - | 291 W/m² | - |
| 1777913326 | 16.11° C | 30% | 1289.2 hPa | 0 mm | - | 245 W/m² | - |
| 1777913023 | 16.67° C | 32% | 1289.4 hPa | 0 mm | - | 247 W/m² | - |
| 1777912719 | 16.67° C | 32% | 1289.2 hPa | 0 mm | - | 450 W/m² | - |
| 1777912415 | 16.67° C | 30% | 1289.5 hPa | 0 mm | - | 487 W/m² | - |
| 1777912111 | 16.67° C | 31% | 1289.4 hPa | 0 mm | - | 581 W/m² | - |
| 1777911807 | 17.22° C | 30% | 1289.6 hPa | 0 mm | - | 637 W/m² | - |
| 1777911504 | 17.22° C | 29% | 1289.6 hPa | 0 mm | - | 630 W/m² | - |
| 1777911201 | 17.22° C | 28% | 1289.5 hPa | 0 mm | - | 627 W/m² | - |
| 1777910898 | 17.22° C | 29% | 1289.5 hPa | 0 mm | - | 609 W/m² | - |
| 1777909989 | 16.67° C | 29% | 1289.6 hPa | 0 mm | - | 496 W/m² | - |
| 1777909686 | 16.67° C | 30% | 1289.6 hPa | 0 mm | - | 482 W/m² | - |
| 1777909383 | 16.67° C | 28% | 1289.6 hPa | 0 mm | - | 467 W/m² | - |
| 1777909081 | 16.11° C | 29% | 1289.6 hPa | 0 mm | - | 466 W/m² | - |
| 1777908779 | 16.11° C | 28% | 1289.5 hPa | 0 mm | - | 446 W/m² | - |
| 1777908475 | 16.11° C | 30% | 1289.7 hPa | 0 mm | - | 416 W/m² | - |
| 1777908172 | 15.56° C | 29% | 1289.6 hPa | 0 mm | - | 397 W/m² | - |
| 1777907868 | 15.56° C | 29% | 1289.5 hPa | 0 mm | - | 386 W/m² | - |
* Rain latest hour (hover to see other rain measurements)
** Current wind speed in m/s (hover to see current wind gust speed)